Tracking 30106 objects as of 24-Jan-2025
HD Live streaming from Space Station
objects crossing your sky now

BREEZE-M R/B

Track BREEZE-M R/B now!


NORAD ID: 39614
Int'l Code: 2014-010C
Perigee: 35,650.6 km
Apogee: 41,849.9 km
Inclination: 9.6 °
Period: 1,589.8 minutes
Semi major axis: 45121 km
RCS: Unknown
Launch date: March 15, 2014
Source: Commonwealth of Independent States (former USSR) (CIS)
Launch site: TYURATAM MISSILE AND SPACE COMPLEX (TTMTR)

Note: This is a ROCKET BODY
Your satellite tracking list
Your tracking list is empty




NASA's NSSDC Master Catalog

Two Line Element Set (TLE):
1 39614U 14010C   25023.06988949 -.00000130  00000-0  00000-0 0  9999
2 39614   9.6196  63.7221 0686962  40.1114 324.8238  0.90579799 35884
Source of the keplerian elements: AFSPC